Regional Weather Roundup
Issued by NWS

Home | Current Version | Previous Version | Text Only | Print | Product List | Glossary On
Versions: 1 2 3 4 5 6 7 8 9 10 11 12 13 14 15 16 17 18 19 20 21 22 23 24 25 26 27 28 29 30 31 32 33 34 35 36 37 38 39 40 41 42 43 44 45 46 47 48 49 50
000
ASUS43 KTOP 160859
RWRKS

WEATHER ROUNDUP FOR KANSAS
NATIONAL WEATHER SERVICE GOODLAND KS
400 AM CDT WED AUG 16 2017

NOTE:  "FAIR" INDICATES FEW OR NO CLOUDS BELOW 12,000 FEET WITH NO
SIGNIFICANT WEATHER AND/OR OBSTRUCTIONS TO VISIBILITY.

KSZ001>006-013>018-027>032-041>047-161000-
NORTHWEST KANSAS

CITY           SKY/WX    TMP DP  RH WIND       PRES   REMARKS
GOODLAND       MOCLDY    61  58  90 N14G21    29.94R
HAYS           TSTM      73  71  93 S22G30    29.72F
HILL CITY      TSTM      63  62  97 N23G29    29.86R FOG
RUSSELL        CLEAR     73  70  90 S16       29.73F
$$

KSZ061>065-074>080-084>089-161000-
SOUTHWEST KANSAS

CITY           SKY/WX    TMP DP  RH WIND       PRES   REMARKS
DODGE CITY     PTCLDY    72  67  84 S7        29.79S
ELKHART          N/A     69  61  76 W7          N/A
GARDEN CITY    MOCLDY    70  67  90 W10       29.82R
LIBERAL        PTCLDY    68  60  75 SW3       29.84S
$$

KSZ066>073-081>083-090>101-161000-
SOUTHEAST KANSAS

CITY           SKY/WX    TMP DP  RH WIND       PRES   REMARKS
CHANUTE        CLOUDY    72  69  90 SE8       29.84F
COFFEYVILLE    CLOUDY    72  70  93 SE6       29.84F
HUTCHINSON     PTCLDY    72  70  93 S9        29.78F
MEDICINE LODGE   N/A     73  71  93 S10       29.76F
NEWTON         PTCLDY    71  70  96 S13       29.81F
PARSONS        CLOUDY    73  69  87 S3        29.85F
WICHITA INTL   PTCLDY    73  72  96 S12       29.80F
WICHITA MCCONL PTCLDY    73  69  90 S13       29.80F
WINFIELD       CLEAR     72  70  93 S9        29.83F
$$

KSZ007>012-019>026-033>040-048>060-102>105-161000-
NORTHEAST KANSAS

CITY           SKY/WX    TMP DP  RH WIND       PRES   REMARKS
CONCORDIA      CLEAR     73  72  96 S10       29.76F
EMPORIA        PTCLDY    71  68  90 SE12      29.82F
LAWRENCE       CLOUDY    75  74  96 E6        29.81F
MANHATTAN      CLOUDY    75  70  84 S7        29.78S
OLATHE IND     CLOUDY    75  72  90 S9        29.84F
OLATHE EXE     CLOUDY    74  73  97 S6        29.84F
SALINA         PTCLDY    75  71  87 S13       29.77F
TOPEKA BILLARD CLOUDY    76  74  93 S6        29.80F
TOPEKA FORBES  CLOUDY    77  71  82 S13       29.80F
$$




USA.gov is the U.S. government's official web portal to all federal, state and local government web resources and services.